This is the latest recevied weather packets stored in our database for station/object SP8EBC-11. If no packets are shown the sender has not sent any weather packets the latest 10 day(s).
| Time | Temp. | Humidity | Pressure | Rain* | Wind** | Luminosity | Snow |
|---|---|---|---|---|---|---|---|
| 1787571064 | 16.67° C | 85% | 1002.5 hPa | - | - | - | - |
| 1787570943 | 16.67° C | 85% | 1002.3 hPa | - | - | - | - |
| 1787570823 | 17.22° C | 85% | 1002.2 hPa | - | - | - | - |
| 1787570703 | 17.22° C | 84% | 1002.1 hPa | - | - | - | - |
| 1787570583 | 16.67° C | 85% | 1002 hPa | - | - | - | - |
| 1787570463 | 16.67° C | 85% | 1001.8 hPa | - | - | - | - |
| 1787570343 | 16.67° C | 86% | 1001.9 hPa | - | - | - | - |
| 1787570224 | 16.11° C | 86% | 1002.2 hPa | - | - | - | - |
| 1787570103 | 16.11° C | 86% | 1002.2 hPa | - | - | - | - |
| 1787569983 | 16.11° C | 86% | 1002.3 hPa | - | - | - | - |
| 1787569863 | 15.56° C | 86% | 1002.3 hPa | - | - | - | - |
| 1787569742 | 15.56° C | 86% | 1002.4 hPa | - | - | - | - |
| 1787569623 | 15.56° C | 86% | 1002.5 hPa | - | - | - | - |
| 1787569503 | 15.56° C | 86% | 1002.5 hPa | - | - | - | - |
| 1787569383 | 16.11° C | 86% | 1002.6 hPa | - | - | - | - |
| 1787569263 | 16.11° C | 85% | 1002.6 hPa | - | - | - | - |
| 1787569142 | 16.11° C | 85% | 1002.6 hPa | - | - | - | - |
| 1787569022 | 16.11° C | 85% | 1002.7 hPa | - | - | - | - |
| 1787568902 | 16.11° C | 85% | 1002.8 hPa | - | - | - | - |
| 1787568782 | 16.11° C | 85% | 1002.9 hPa | - | - | - | - |
| 1787568663 | 16.11° C | 85% | 1002.9 hPa | - | - | - | - |
| 1787568542 | 16.67° C | 85% | 1002.8 hPa | - | - | - | - |
| 1787568422 | 16.67° C | 84% | 1002.5 hPa | - | - | - | - |
| 1787568302 | 16.67° C | 85% | 1002.2 hPa | - | - | - | - |
| 1787568182 | 17.22° C | 85% | 1002.1 hPa | - | - | - | - |
* Rain since midnight (hover to see other rain measurements)
** Current wind speed in m/s (hover to see current wind gust speed)